Regional Weather Roundup
Issued by NWS Tiyan, Guam

Home | Current Version | Previous Version | Text Only | Print | Product List | Glossary On
Versions: 1 2 3 4 5 6 7 8 9 10 11 12 13 14 15 16 17 18 19 20 21 22 23 24 25 26 27 28 29 30 31 32 33 34 35 36 37 38 39 40 41 42 43 44 45 46 47 48 49 50
000
ASGM40 PGUM 050810
RWRGUM
WEATHER ROUNDUP FOR THE MARIANAS
NATIONAL WEATHER SERVICE TIYAN GU
600 PM CHST THU MAR 05 2015

GUZ001>004-050900-
MARIANA ISLANDS-

CITY           SKY/WX    TMP DP  RH WIND       PRES   REMARKS
GUAM AIRPORT   CLOUDY    81  75  83 NE9       29.88R
ANDERSEN AFB   MOCLDY    77  75  94 NE12      29.89R
ROTA AIRPORT   NOT AVBL
TINIAN AP      MOCLDY    79  73  83 E8        29.88
SAIPAN AP      CLOUDY    81  72  74 E14       29.89R

$$




USA.gov is the U.S. government's official web portal to all federal, state and local government web resources and services.